[[{"header":{"parameterUnit":"m.s-1","parameterCategory":1,"la1":30.2992,"la2":30.254,"lo1":-89.0895,"lo2":-89.0443,"dy":0.0025,"dx":0.0025,"nx":19,"ny":19,"refTime":"2026-03-06T03:00:00:Z","depth":0,"parameterNumber":2,"parameterNumberName":"U-component_of_WINDS"},"data":[0,0,0,-3.7189,-3.7191,-3.7242,-3.7242,-3.7334,-3.7335,0,0,0,0,0,0,0,0,0,0,0,-3.7186,-3.7187,-3.7189,-3.7191,-3.7242,-3.7242,-3.7334,-3.7335,0,0,0,0,0,0,0,0,0,0,0,-3.7186,-3.7187,-3.7188,-3.7191,-3.7242,-3.7242,-3.7334,-3.7286,0,0,0,0,0,0,0,0,0,0,-3.7232,-3.724,-3.7187,-3.7188,-3.7191,-3.7242,-3.7242,-3.7284,-3.7289,-3.7321,0,-3.7349,0,-3.7344,-3.7343,-3.7343,0,0,0,-3.7182,-3.7235,-3.7238,-3.7188,-3.7192,-3.7242,-3.7217,-3.7287,-3.7293,-3.7329,-3.735,-3.7353,-3.7345,-3.7343,-3.7344,-3.7548,-3.7549,0,0,-3.718,-3.7202,-3.7234,-3.7243,-3.7233,-3.7215,-3.7218,-3.729,-3.7316,-3.735,-3.7355,-3.7347,-3.7344,-3.7345,-3.7546,-3.7548,0,0,0,-3.7177,-3.7201,-3.7201,-3.724,-3.7247,-3.7217,-3.722,-3.7313,-3.7311,-3.7355,-3.7348,-3.7345,-3.7346,-3.7545,-3.7547,-3.7634,0,0,0,-3.7175,-3.7199,-3.7201,-3.7215,-3.7246,-3.728,-3.7242,-3.7306,-3.7313,-3.7347,-3.7345,-3.7347,-3.7543,-3.7546,-3.7628,-3.7671,0,0,0,-3.7179,-3.7199,-3.7211,-3.7216,-3.7239,-3.7278,-3.728,-3.7307,-3.7309,-3.7343,-3.7347,-3.7542,-3.7545,-3.7623,-3.7662,-3.7731,0,0,0,-3.719,-3.7287,-3.7213,-3.732,-3.7238,-3.7331,-3.7279,-3.7348,-3.7387,-3.7345,-3.7543,-3.7547,-3.7621,-3.7657,-3.7726,-3.7792,-3.7822,0,0,-3.7326,-3.7305,-3.7366,-3.73,-3.7412,-3.7321,-3.7447,-3.7463,-3.7447,-3.7516,-3.7521,-3.763,-3.7662,-3.773,-3.7983,-3.8007,0,0,0,-3.7417,-3.7461,-3.7486,-3.7523,-3.7537,-3.7554,-3.7548,-3.7555,-3.7612,-3.7486,-3.7673,-3.7692,-3.7731,-3.7761,-3.7782,-3.7815,-3.7562,-3.7562,-3.7561,-3.764,-3.7614,-3.7715,-3.7696,-3.7734,-3.7728,-3.7758,-3.7767,-3.7729,-3.7775,-3.7794,-3.7951,-3.7987,-3.8002,-3.8037,-3.7828,-3.7829,-3.7829,-3.7829,-3.7836,-3.7895,-3.7845,-3.7924,-3.7899,-3.7966,-3.7968,-3.794,-3.8001,-3.7933,-3.7966,-3.7892,-3.8029,-3.8058,-3.7835,-3.7834,-3.7834,-3.7833,-3.7833,-3.7978,-3.8002,-3.8008,-3.8063,-3.8109,-3.8089,-3.815,-3.8125,-3.8102,-3.8135,-3.8154,-3.8153,-3.8148,-3.8147,-3.8147,-3.8148,-3.8148,-3.8149,-3.8149,-3.8122,-3.8127,-3.818,-3.8206,-3.8229,-3.8256,-3.8256,-3.8279,-3.8299,-3.8276,-3.8276,-3.8236,-3.8047,-3.8,-3.8157,-3.8156,-3.8155,-3.8154,-3.8153,-3.8328,-3.8278,-3.836,-3.8383,-3.8414,-3.8464,-3.8432,-3.8483,-3.8499,-3.8531,-3.8486,-3.835,-3.8327,-3.8311,-3.8271,-3.849,-3.849,-3.849,-3.849,-3.8447,-3.8433,-3.8513,-3.8552,-3.8589,-3.857,-3.8669,-3.8672,-3.8668,-3.8678,-3.8644,-3.859,-3.8575,-3.8561,-3.8539,-3.8502,-3.8774,-3.8774,-3.8774,-3.8572,-3.8562,-3.8648,-3.8641,-3.8665,-3.8687,-3.878,-3.8831,-3.8817,-3.8785,-3.8685,-3.8673,-3.8586,-3.8559,-3.8522,-3.8488,-3.842,0,0]},{"header":{"parameterUnit":"m.s-1","parameterCategory":1,"la1":30.2992,"la2":30.254,"lo1":-89.0895,"lo2":-89.0443,"dy":0.0025,"dx":0.0025,"nx":19,"ny":19,"refTime":"2026-03-06T03:00:00:Z","depth":0,"parameterNumber":3,"parameterNumberName":"V-component_of_WINDS"},"data":[0,0,0,1.3362,1.3361,1.3312,1.3312,1.3237,1.3236,0,0,0,0,0,0,0,0,0,0,0,1.3371,1.337,1.3363,1.3361,1.3312,1.3312,1.3237,1.3236,0,0,0,0,0,0,0,0,0,0,0,1.3371,1.337,1.3369,1.3361,1.3312,1.3312,1.3237,1.3278,0,0,0,0,0,0,0,0,0,0,1.3328,1.3329,1.337,1.3369,1.3361,1.3312,1.3312,1.328,1.3276,1.3254,0,1.3235,0,1.3235,1.3231,1.323,0,0,0,1.3365,1.3333,1.3326,1.3369,1.336,1.3312,1.3335,1.3278,1.3273,1.3248,1.3234,1.3232,1.3234,1.323,1.323,1.31,1.3099,0,0,1.3368,1.3358,1.333,1.3323,1.3331,1.3337,1.3334,1.3275,1.3258,1.3234,1.323,1.3232,1.323,1.3229,1.31,1.3099,0,0,0,1.3373,1.3359,1.3354,1.3325,1.3318,1.3335,1.3332,1.3261,1.326,1.3229,1.3231,1.3229,1.3228,1.3101,1.31,1.3052,0,0,0,1.3375,1.3362,1.3355,1.3348,1.3319,1.3289,1.3319,1.3264,1.3258,1.3232,1.3229,1.3227,1.3102,1.31,1.3055,1.303,0,0,0,1.3376,1.3363,1.3354,1.3348,1.3327,1.329,1.3286,1.3263,1.3259,1.323,1.3227,1.3103,1.3101,1.3058,1.3035,1.2994,0,0,0,1.3373,1.3309,1.3353,1.3282,1.3327,1.3262,1.3287,1.3238,1.3208,1.3229,1.3102,1.31,1.3059,1.3038,1.2997,1.2957,1.294,0,0,1.3287,1.3298,1.3258,1.3296,1.322,1.327,1.3187,1.3168,1.3173,1.3123,1.312,1.3054,1.3035,1.2995,1.2849,1.2835,0,0,0,1.3227,1.3198,1.318,1.3153,1.3139,1.3125,1.312,1.3113,1.3073,1.3146,1.3029,1.3018,1.2995,1.2976,1.2964,1.2945,1.3091,1.3092,1.3092,1.3087,1.3101,1.3036,1.3044,1.3017,1.3015,1.2995,1.2985,1.3003,1.2976,1.2961,1.2871,1.2849,1.284,1.282,1.2942,1.2942,1.2941,1.2941,1.2961,1.2922,1.2954,1.2901,1.2916,1.2871,1.2868,1.2883,1.2844,1.2883,1.2863,1.2903,1.2825,1.2808,1.2938,1.2938,1.2939,1.2939,1.2939,1.287,1.2854,1.285,1.2815,1.2786,1.2797,1.2759,1.2773,1.2786,1.2766,1.2753,1.2753,1.2756,1.2759,1.2759,1.2759,1.2759,1.2758,1.2758,1.2777,1.2775,1.2742,1.2725,1.2712,1.2695,1.2696,1.2682,1.267,1.2684,1.2684,1.2705,1.2816,1.2843,1.2753,1.2754,1.2755,1.2755,1.2756,1.2642,1.2677,1.2626,1.2612,1.2596,1.2567,1.2588,1.256,1.2551,1.2532,1.256,1.2639,1.2651,1.266,1.2683,1.2557,1.2557,1.2557,1.2557,1.2565,1.2575,1.2528,1.2506,1.2487,1.2502,1.2444,1.2445,1.245,1.2446,1.2467,1.2498,1.2507,1.2514,1.2526,1.2547,1.239,1.239,1.239,1.2483,1.2492,1.244,1.245,1.2439,1.2429,1.2376,1.2349,1.2362,1.2383,1.2443,1.245,1.2501,1.2517,1.2536,1.2555,1.2594,0,0]}]]